FW4608 Weather Reports


time (UTC)temp
F
wind
direction
speed
knots
gust
knots
rain 1hr
in
rain 24hr
in
rain mn
in
humidity
%
barometer
mb
20260504050530 57 359 0.0 0.0 0.00 0.00 0.00 90 1018.4
20260504045126 57 359 0.0 0.0 0.00 0.00 0.00 89 1018.6
20260504044035 57 359 0.0 0.0 0.00 0.00 0.00 89 1018.5
20260504043523 57 359 0.0 0.0 0.00 0.00 0.00 89 1018.5
20260504043024 57 359 0.0 0.0 0.00 0.00 0.00 89 1018.5
20260504042519 57 359 0.0 0.0 0.00 0.00 0.00 89 1018.5
20260504042018 57 359 0.0 0.0 0.00 0.00 0.00 89 1018.5
20260504041515 57 359 0.0 0.0 0.00 0.00 0.00 88 1018.4
20260504041014 57 359 0.0 0.0 0.00 0.00 0.00 88 1018.5
20260504040512 57 359 0.0 0.0 0.00 0.00 0.00 88 1018.5
20260504040008 57 359 0.0 0.0 0.00 0.00 0.00 88 1018.5
20260504035512 58 359 0.0 0.0 0.00 0.00 0.00 88 1018.5
20260504035013 58 359 0.0 0.0 0.00 0.00 0.00 88 1018.5
20260504034508 58 359 0.0 0.0 0.00 0.00 0.00 87 1018.5
20260504034014 58 359 0.0 0.0 0.00 0.00 0.00 87 1018.5
20260504033607 58 359 0.0 0.0 0.00 0.00 0.00 87 1018.5
20260504033003 58 359 0.0 0.0 0.00 0.00 0.00 87 1018.6
20260504032603 58 359 0.0 0.0 0.00 0.00 0.00 87 1018.6
20260504032007 58 359 0.0 0.0 0.00 0.00 0.00 86 1018.6
20260504031501 59 359 0.0 0.0 0.00 0.00 0.00 86 1018.6
20260504031001 59 359 0.0 0.0 0.00 0.00 0.00 86 1018.6
20260504030503 59 359 0.0 0.0 0.00 0.00 0.00 86 1018.6
20260504030100 59 359 0.0 0.0 0.00 0.00 0.00 85 1018.5
20260504025559 59 359 0.0 0.0 0.00 0.00 0.00 85 1018.6
20260504025501 59 359 0.0 0.0 0.00 0.00 0.00 85 1018.6
20260504025059 60 359 0.0 0.0 0.00 0.00 0.00 85 1018.4
20260504024601 60 359 0.0 0.0 0.00 0.00 0.00 85 1018.4
20260504024502 60 359 0.0 0.0 0.00 0.00 0.00 85 1018.4
20260504024102 60 359 0.0 0.0 0.00 0.00 0.00 84 1018.4
20260504023055 60 359 0.0 0.0 0.00 0.00 0.00 84 1018.4
20260504022552 60 359 0.0 0.0 0.00 0.00 0.00 83 1018.5
20260504022051 60 359 0.0 0.0 0.00 0.00 0.00 83 1018.4
20260504021049 61 359 0.0 0.0 0.00 0.00 0.00 82 1018.2
20260504020552 61 359 0.0 0.0 0.00 0.00 0.00 81 1018.1
20260504020056 61 359 0.0 0.0 0.00 0.00 0.00 81 1018.1
20260504015549 61 359 0.0 0.0 0.00 0.00 0.00 81 1018.0
20260504015047 61 359 0.0 0.0 0.00 0.00 0.00 81 1018.0
20260504014556 61 359 0.0 0.0 0.00 0.00 0.00 80 1017.9
20260504014048 62 359 0.0 0.0 0.00 0.00 0.00 78 1017.9
20260504013545 62 359 0.0 0.0 0.00 0.00 0.00 78 1017.8
20260504013046 62 359 0.0 0.0 0.00 0.00 0.00 78 1017.7
20260504012550 63 359 0.0 0.0 0.00 0.00 0.00 77 1017.6
20260504012044 63 359 0.0 0.0 0.00 0.00 0.00 76 1017.6
20260504011542 63 359 0.0 0.0 0.00 0.00 0.00 75 1017.6
20260504011038 63 359 0.0 0.0 0.00 0.00 0.00 75 1017.6
20260504010541 64 359 0.0 0.9 0.00 0.00 0.00 75 1017.6
20260504010041 64 3 0.0 0.9 0.00 0.00 0.00 74 1017.5
20260504005539 64 4 0.0 0.9 0.00 0.00 0.00 73 1017.4
20260504005039 64 4 0.0 0.9 0.00 0.00 0.00 72 1017.4
20260504004536 64 5 0.0 0.0 0.00 0.00 0.00 72 1017.4
20260504004038 65 5 0.0 0.0 0.00 0.00 0.00 71 1017.3
20260504003542 65 5 0.0 0.0 0.00 0.00 0.00 71 1017.4
20260504003034 65 5 0.0 0.0 0.00 0.00 0.00 70 1017.4
20260504002533 65 5 0.0 0.0 0.00 0.00 0.00 70 1017.3
20260504002032 66 5 0.0 0.9 0.00 0.00 0.00 68 1017.2
20260504001537 66 6 0.0 0.9 0.00 0.00 0.00 67 1017.3
20260504001033 67 5 0.0 0.0 0.00 0.00 0.00 67 1017.3
20260504000532 67 352 0.0 0.9 0.00 0.00 0.00 66 1017.4
20260504000040 67 4 0.0 1.7 0.00 0.00 0.00 65 1017.5
20260503235547 68 355 0.0 2.6 0.00 0.00 0.00 65 1017.5
20260503235026 68 149 0.0 2.6 0.00 0.00 0.00 63 1017.5
20260503234526 69 15 0.0 1.7 0.00 0.00 0.00 63 1017.5
20260503234026 69 278 0.0 1.7 0.00 0.00 0.00 63 1017.5
20260503233529 69 129 0.0 1.7 0.00 0.00 0.00 62 1017.4
20260503233025 70 101 0.0 3.5 0.00 0.00 0.00 62 1017.4
20260503232522 70 167 0.0 3.5 0.00 0.00 0.00 61 1017.4
20260503232024 71 126 0.0 1.7 0.00 0.00 0.00 61 1017.4
20260503231521 71 321 0.0 1.7 0.00 0.00 0.00 59 1017.3
20260503231021 72 253 0.0 0.9 0.00 0.00 0.00 58 1017.2
20260503230521 72 254 0.0 1.7 0.00 0.00 0.00 57 1017.2
20260503230021 72 15 0.0 1.7 0.00 0.00 0.00 56 1017.2
20260503225520 72 340 0.0 2.6 0.00 0.00 0.00 55 1017.3
20260503225018 72 352 0.0 2.6 0.00 0.00 0.00 56 1017.3
20260503224521 72 235 0.0 0.9 0.00 0.00 0.00 54 1017.3
20260503224016 72 325 0.0 0.9 0.00 0.00 0.00 54 1017.3
20260503223516 72 328 0.0 0.9 0.00 0.00 0.00 55 1017.4
20260503223016 72 312 0.0 1.7 0.00 0.00 0.00 54 1017.3
20260503222016 73 16 0.9 2.6 0.00 0.00 0.00 52 1017.2
20260503221511 73 295 0.0 1.7 0.00 0.00 0.00 53 1017.2
20260503221014 73 51 0.0 2.6 0.00 0.00 0.00 52 1017.2
20260503220612 73 100 0.0 2.6 0.00 0.00 0.00 53 1017.3
20260503220020 74 318 0.0 2.6 0.00 0.00 0.00 53 1017.2
20260503215510 74 309 0.9 2.6 0.00 0.00 0.00 53 1017.4
20260503215012 75 312 0.9 2.6 0.00 0.00 0.00 52 1017.3
20260503214522 76 354 0.0 1.7 0.00 0.00 0.00 54 1017.2
20260503214009 75 274 0.0 2.6 0.00 0.00 0.00 55 1017.2
20260503213509 75 344 0.0 4.3 0.00 0.00 0.00 55 1017.1
20260503213005 75 340 0.0 4.3 0.00 0.00 0.00 55 1017.1
20260503212508 75 326 0.9 3.5 0.00 0.00 0.00 54 1017.1
20260503212005 76 207 0.0 5.2 0.00 0.00 0.00 55 1017.1
20260503211503 76 321 0.0 5.2 0.00 0.00 0.00 53 1017.2
20260503211004 76 278 0.9 5.2 0.00 0.00 0.00 52 1017.2
20260503210502 76 253 0.0 3.5 0.00 0.00 0.00 53 1017.2
20260503210005 77 96 0.0 3.5 0.00 0.00 0.00 54 1017.2
20260503205502 76 144 0.0 2.6 0.00 0.00 0.00 56 1017.2
20260503205103 76 227 0.0 3.5 0.00 0.00 0.00 54 1017.2
20260503205004 76 318 0.0 3.5 0.00 0.00 0.00 55 1017.3
20260503204508 76 326 0.0 3.5 0.00 0.00 0.00 56 1017.3
20260503204013 76 315 0.0 2.6 0.00 0.00 0.00 56 1017.4
20260503203105 77 144 0.9 6.1 0.00 0.00 0.00 52 1017.5
20260503202555 77 297 0.0 6.1 0.00 0.00 0.00 55 1017.5
20260503202053 77 321 0.9 4.3 0.00 0.00 0.00 54 1017.5
20260503201551 77 88 1.7 4.3 0.00 0.00 0.00 54 1017.5
20260503201052 77 236 0.9 5.2 0.00 0.00 0.00 51 1017.6
20260503200549 77 243 0.0 7.0 0.00 0.00 0.00 55 1017.6
20260503200050 78 268 0.0 3.5 0.00 0.00 0.00 54 1017.6
20260503200003 78 274 0.0 3.5 0.00 0.00 0.00 55 1017.6
20260503195549 78 266 0.0 4.3 0.00 0.00 0.00 55 1017.7
20260503195154 77 13 0.9 4.3 0.00 0.00 0.00 54 1017.9
20260503194554 77 68 0.9 5.2 0.00 0.00 0.00 56 1017.8
20260503194046 77 104 0.0 2.6 0.00 0.00 0.00 56 1017.9
20260503193544 77 160 0.0 2.6 0.00 0.00 0.00 56 1017.8
20260503193043 76 135 0.9 2.6 0.00 0.00 0.00 56 1017.9
20260503192539 76 335 0.0 1.7 0.00 0.00 0.00 58 1018.0
20260503192143 76 135 0.0 4.3 0.00 0.00 0.00 56 1018.3
20260503191538 77 335 0.9 4.3 0.00 0.00 0.00 54 1018.3
20260503191033 77 113 0.0 4.3 0.00 0.00 0.00 56 1018.4
20260503190531 78 304 0.0 2.6 0.00 0.00 0.00 52 1018.3
20260503190042 79 129 0.0 2.6 0.00 0.00 0.00 52 1018.5
20260503185530 79 259 0.9 3.5 0.00 0.00 0.00 55 1018.5
20260503185032 77 258 0.0 4.3 0.00 0.00 0.00 58 1018.5
20260503184530 78 238 0.0 5.2 0.00 0.00 0.00 57 1018.6
20260503184032 79 341 0.9 5.2 0.00 0.00 0.00 51 1018.6
20260503183529 79 170 0.9 4.3 0.00 0.00 0.00 53 1018.5
20260503183026 78 255 0.9 6.1 0.00 0.00 0.00 54 1018.6
20260503182521 77 247 0.9 6.1 0.00 0.00 0.00 56 1018.6
20260503182020 77 331 0.9 3.5 0.00 0.00 0.00 55 1018.7
20260503181521 77 173 0.0 3.5 0.00 0.00 0.00 59 1018.7
20260503181023 76 90 0.9 3.5 0.00 0.00 0.00 57 1018.6
20260503180518 75 108 0.0 4.3 0.00 0.00 0.00 63 1018.6
20260503180018 75 175 0.9 4.3 0.00 0.00 0.00 58 1018.7
20260503175516 76 200 0.0 3.5 0.00 0.05 0.00 59 1018.8
20260503175014 76 321 0.9 5.2 0.00 0.05 0.00 57 1018.6
20260503174517 76 326 0.0 5.2 0.00 0.05 0.00 62 1018.8
20260503174020 75 284 0.0 4.3 0.00 0.05 0.00 58 1018.6
20260503173513 75 313 0.9 4.3 0.00 0.05 0.00 58 1018.8
20260503173012 76 269 0.0 3.5 0.00 0.05 0.00 59 1018.7
20260503172512 77 298 0.0 4.3 0.00 0.05 0.00 59 1018.8
20260503172013 77 287 0.9 4.3 0.00 0.05 0.00 59 1018.7
20260503171513 76 340 0.9 3.5 0.00 0.05 0.00 58 1019.0
20260503171010 77 80 0.0 3.5 0.00 0.05 0.00 58 1019.1
20260503170513 76 113 0.0 3.5 0.00 0.05 0.00 57 1019.1
20260503150534 73 306 0.0 3.5 0.00 0.20 0.00 72 1019.3
20260503131040 62 328 0.0 2.6 0.00 0.23 0.00 89 1018.6
20260503130538 62 127 0.0 1.7 0.00 0.23 0.00 89 1018.6
20260503110505 56 65 0.0 0.0 0.00 0.23 0.00 93 1017.7
20260503081523 60 17 0.0 0.9 0.00 0.23 0.00 93 1016.1
20260503081016 60 314 0.0 0.9 0.00 0.23 0.00 93 1016.1
20260503080613 60 312 0.0 1.7 0.00 0.23 0.00 93 1016.0
20260503072508 59 354 0.0 0.9 0.00 0.23 0.00 93 1015.8
20260503072006 59 327 0.0 0.0 0.00 0.23 0.00 93 1015.7
20260503071510 59 327 0.0 0.0 0.00 0.23 0.00 93 1015.7
20260503071004 59 327 0.0 0.0 0.00 0.23 0.00 93 1015.7
20260503070502 58 326 0.0 0.0 0.00 0.23 0.00 93 1015.6
20260503055051 59 328 0.0 0.0 0.00 0.23 0.00 92 1015.5
20260503054549 59 328 0.0 0.0 0.00 0.23 0.00 92 1015.6
20260503054050 59 328 0.0 0.0 0.00 0.23 0.00 92 1015.6
20260503053551 59 328 0.0 0.0 0.00 0.23 0.00 92 1015.5
20260503053048 60 328 0.0 0.9 0.00 0.23 0.00 92 1015.6
20260503052645 60 328 0.0 0.9 0.00 0.23 0.00 92 1015.4
20260503052040 60 234 0.0 0.0 0.00 0.23 0.00 92 1015.4
20260503051542 60 234 0.0 0.9 0.00 0.23 0.00 92 1015.3
20260503051041 60 235 0.0 0.9 0.00 0.23 0.00 92 1015.3